SL-16 DEB, 22579

Orbit data source: Space-Track

SL-16 DEB, 22579 is space debris in LEO originally from a launch on Fri, 26 Mar 1993 UTC launched from the Tyuratam Missile And Space Complex (TTMTR). Debris objects in space refer to the collection of defunct objects orbiting the Earth. Examples of debris include non-operational satellites, rocket bodies, and fragments generated from explosions, collisions, or faulty payload assembly.

Loading next visibility...
Identifier
22579, 1993-016G
Orbit
LEO
Country
Flag of CISCIS
Related business
Manufacturer
Unknown
Mission
Spacecraft
Bus & Motor
Unknown
Mass
Unknown
Launch date (UTC)
1993-03-26 (33 years ago)
Launch vehicle
Unknown
Launch site
Tyuratam Missile And Space Complex (TTMTR)
Object type
Payload
Rocket body
Debris
Shape & HBR
Unknown shape, 0.2 m
Radar Cross Section
Small (<0.1 m²)

Expand to show TLE details & history
Last TLE update: 20 hours ago

TLE from 20 hours ago
0 SL-16 DEB
1 22579U 93016G   25341.03789045  .00000899  00000-0  24720-3 0  9999
2 22579  71.0298   2.2250 0102283  17.0887  23.2101 14.46762526721611
Epoch: 2025-12-07T00:54Z
TLE epoch observation values (Epoch: 2025-12-07T00:54:33.734Z)
Latitude
38.22649°
Longitude
-71.85025°
Altitude
674.272 km
Speed
7.559 km/s
True Right ascension
01h 11m 23s
True Declination
38° 03' 27"
Sunlit
Object was in full shadow at epoch
Visualization orbit readout
Latitude
Unknown
Longitude
Unknown
Altitude
Unknown
Speed
Unknown
Apparent Right ascension
Unknown
Apparent Declination
Unknown
Sunlit
N/A
Visualization observer readout
Local Sidereal Time
19:11:58
Azimuth
Unknown
Elevation
Unknown
Doppler factor
Unknown
Orbital elements
Apogee altitude
806.879 km
Perigee altitude
661.386 km
Semi-major axis
7,112.27 km
Eccentricity
0.01023
Inclination
71.0298°
RAAN
2.225°
Arg. of periapsis
17.0887°
True anomaly
23.6775°
Mean anomaly
23.2101°
Eccentric anomaly
23.44325°
Mean motion
3.61852 °/min
Orbital period
99.49 mins
BSTAR
0.0002472
Loading maneuver chart data...
Computing Atmospheric mass density...
Loading historical data...
Loading historical data...
Loading historical data...
Loading historical data...
Loading historical data...
Loading historical data...
Loading historical data...

Documentation

Showing up to 5 results
|